This demonstration page uses our WeatherBlox Daily Observations layout. Learn more.

Left ArrowRight Arrow

Hourly Observations for March 18, 2021

Temp ( °F °C ) Dew Point ( °F °C ) Humidity (%) Winds ( mph kmh ) Pressure ( in mb ) Visibility ( mi km ) Precip ( " mm )
12:51 am 00:51 Clear 42 5.6 23 -5 47 47 ENE 3 6 30.06 1018 10 16 N/A
1:51 am 01:51 Clear 42 5.6 25 -3.9 51 51 N N/A 30.05 1018 10 16 N/A
2:51 am 02:51 Clear 41 5 25 -3.9 53 53 N N/A 30.05 1018 10 16 N/A
3:51 am 03:51 Clear 38 3.3 21 -6.1 51 51 E 5 7 30.06 1018 10 16 N/A
4:51 am 04:51 Clear 37 2.8 20 -6.7 50 50 E 5 7 30.06 1018 10 16 N/A
5:51 am 05:51 Clear 38 3.3 22 -5.6 52 52 E 3 6 30.07 1018 10 16 N/A
6:51 am 06:51 Sunny 40 4.4 21 -6.1 47 47 SSE 7 11 30.10 1019 10 16 N/A
7:51 am 07:51 Sunny 49 9.4 25 -3.9 39 39 SE 12 19 30.13 1020 10 16 N/A
8:51 am 08:51 Sunny 58 14.4 29 -1.7 33 33 E 13 20 30.12 1020 10 16 N/A
9:51 am 09:51 Sunny 65 18.3 26 -3.3 23 23 E 13 20 30.10 1019 10 16 N/A
10:51 am 10:51 Sunny 67 19.4 23 -5 19 19 ESE 8 13 30.09 1019 10 16 N/A
11:51 am 11:51 Sunny 70 21.1 22 -5.6 16 16 SE 10 17 30.08 1019 10 16 N/A
12:51 pm 12:51 Sunny 72 22.2 20 -6.7 14 14 VRB 5 7 30.05 1018 10 16 N/A
1:51 pm 13:51 Sunny 74 23.3 18 -7.8 12 12 VRB 5 7 30.01 1016 10 16 N/A
2:51 pm 14:51 Sunny 76 24.4 15 -9.4 10 10 SSE 6 9 29.98 1015 10 16 N/A
3:51 pm 15:51 Sunny 77 25 13 -10.6 9 9 SSW 6 9 29.97 1015 10 16 N/A
4:51 pm 16:51 Sunny 77 25 11 -11.7 8 8 N N/A 29.97 1015 10 16 N/A
5:51 pm 17:51 Sunny 77 25 8 -13.3 7 7 N N/A 29.96 1015 10 16 N/A
6:51 pm 18:51 Clear 68 20 12 -11.1 11 11 NE 5 7 29.97 1015 10 16 N/A
7:51 pm 19:51 Clear 64 17.8 12 -11.1 13 13 E 9 15 29.98 1015 10 16 N/A
8:51 pm 20:51 Clear 63 17.2 14 -10 15 15 SSE 9 15 29.99 1016 10 16 N/A
9:51 pm 21:51 Clear 57 13.9 14 -10 18 18 E 7 11 30.01 1016 10 16 N/A
10:51 pm 22:51 Clear 60 15.6 14 -10 16 16 SE 6 9 30.01 1016 10 16 N/A
11:51 pm 23:51 Clear 54 12.2 15 -9.4 21 21 ESE 8 13 30.02 1017 10 16 N/A

Powered by AerisWeather